{"data":{"norad_id":60998,"intl_designator":"2024-158J","name":"STARLINK-11287 [DTC]","alt_names":[],"object_type":"PAYLOAD","status":"ACTIVE","operator":null,"country":"US","launch_date":"2024-09-05","launch_site_code":"AFETR","launch_vehicle":null,"mission":null,"orbit_class":"UNKNOWN","rcs_meters":null,"size_class":null,"mass_kg":null,"dimensions":null,"purposes":["comms"],"wikipedia_slug":null,"has_3d_model":false,"image_url":null,"decayed_at":null,"tle_current":{"epoch":"2026-09-20T17:07:45.192000Z","epoch_age_seconds":173663,"freshness":"STALE","line1":"1 60998U 24158J   26263.71371750 -.00000999  00000+0 -33879-5 0  9995","line2":"2 60998  53.1580  39.9909 0001041  78.5182 281.5953 15.69706457118218","mean_motion":15.69706457,"eccentricity":0.0001041,"inclination_deg":53.158,"raan_deg":39.9909,"arg_perigee_deg":78.5182,"mean_anomaly_deg":281.5953,"bstar":-3.3879e-6,"rev_number":11821,"period_min":91.736897276457,"perigee_km":359.0354764768,"apogee_km":360.43830182052,"semimajor_km":6737.8738891487,"source":"CELESTRAK","updated_at":"2026-09-22T09:00:49.296116Z"}}}